Back to catalog

STARLINK-11737

AliveCommunicationsVLEO
NORAD 64066·PAYLOAD·🇺🇸 United States

Launched May 21, 2025 from Cape Canaveral Space Force Station

Loading…

Next Passes (next 24 hours)

TLE

FreshSource: CelesTrak SupGP

Epoch: Sep 14, 2026, 20:43 UTC

1 64066C 25107C   26257.86368056  .00105240  00000+0  81923-3 0  2575
2 64066  43.0012  37.9686 0001746 278.4992 313.5488 15.70732112    14

Track STARLINK-11737 in real time with AllMySat

Download on the App Store